Total_Precipitation_Accumulation
2.59 2.70 2.68 2.63 2.66 2.62 2.70 2.82 2.89 2.71 2.39 2.08 1.99 1.88 1.92 1.96 2.15 1.79 1.81 1.99 1.76 1.64 1.57 1.52 1.49 1.42 1.38 1.40 1.43 1.47 1.51 1.57 1.65 1.72 1.81 1.93 2.10 2.32
2.34 2.51 2.55 2.50 2.63 2.70 2.79 2.83 2.86 2.85 2.63 2.21 2.09 1.97 1.96 1.87 2.20 1.90 1.88 1.98 1.71 1.51 1.39 1.31 1.26 1.21 1.20 1.25 1.29 1.33 1.34 1.33 1.36 1.42 1.50 1.59 1.71 1.86
2.16 2.26 2.35 2.42 2.55 2.59 2.66 2.68 2.74 2.79 2.68 2.32 2.19 2.16 2.16 2.09 2.12 1.98 1.88 1.83 1.68 1.56 1.36 1.24 1.19 1.14 1.12 1.18 1.22 1.21 1.26 1.28 1.30 1.31 1.35 1.42 1.48 1.55
2.00 2.07 2.13 2.18 2.28 2.24 2.34 2.38 2.42 2.52 2.52 2.45 2.40 2.31 2.28 2.22 2.13 1.94 1.67 1.49 1.47 1.47 1.31 1.24 1.20 1.17 1.18 1.22 1.23 1.23 1.20 1.16 1.16 1.21 1.27 1.28 1.30 1.38
1.74 1.80 1.86 1.93 1.90 1.84 1.88 1.88 1.99 2.10 2.33 2.34 2.28 2.35 2.30 2.28 2.37 2.06 1.80 1.76 1.35 1.29 1.24 1.22 1.21 1.16 1.15 1.14 1.12 1.10 1.09 1.03 0.96 0.97 1.06 1.16 1.21 1.19
1.54 1.56 1.55 1.50 1.47 1.52 1.55 1.60 1.73 2.00 2.20 2.21 2.08 2.08 2.12 2.10 2.28 2.16 2.05 1.92 1.63 1.23 1.19 1.10 1.11 1.11 1.07 1.00 0.96 0.93 0.94 0.99 1.00 0.96 0.94 0.95 0.99 1.03
1.42 1.39 1.32 1.29 1.31 1.29 1.23 1.37 1.63 1.89 2.00 2.05 2.01 1.95 1.91 1.98 2.01 1.90 1.89 1.91 1.81 1.49 1.40 1.15 1.05 1.06 1.08 1.05 0.99 0.90 0.84 0.83 0.87 0.89 0.90 0.89 0.91 0.94
1.36 1.27 1.18 1.14 1.12 1.12 1.11 1.20 1.35 1.52 1.67 1.80 1.81 1.79 1.77 1.82 1.93 1.93 1.92 1.95 1.89 1.65 1.62 1.45 1.22 1.29 1.23 1.10 1.01 0.92 0.88 0.86 0.84 0.86 0.91 0.93 0.92 0.91
1.33 1.34 1.15 0.98 1.08 1.11 1.13 1.17 1.19 1.26 1.39 1.58 1.70 1.65 1.69 1.81 2.03 2.02 2.05 2.03 1.92 1.74 1.81 1.74 1.55 1.48 1.21 1.04 1.04 0.93 0.87 0.84 0.84 0.84 0.87 0.90 0.95 0.95
1.22 1.24 1.26 1.20 1.14 1.17 1.14 1.16 1.16 1.21 1.28 1.36 1.52 1.57 1.55 1.68 1.91 1.92 1.96 1.96 1.85 1.74 1.84 1.89 1.60 1.50 1.19 1.22 1.10 0.92 0.84 0.84 0.82 0.76 0.77 0.82 0.90 0.98
1.06 1.05 1.04 1.03 1.05 1.14 1.21 1.29 1.29 1.25 1.11 1.16 1.22 1.32 1.44 1.52 1.60 1.68 1.84 2.01 1.91 1.74 1.74 1.84 1.67 1.54 1.38 1.39 1.21 1.01 0.92 0.93 0.88 0.75 0.69 0.71 0.77 0.90
1.02 0.97 0.93 0.88 0.87 0.90 0.98 1.19 1.32 1.24 1.17 1.18 1.29 1.43 1.50 1.55 1.53 1.59 1.78 1.94 1.92 1.91 1.71 1.77 1.75 1.71 1.65 1.40 1.28 1.21 1.16 1.20 1.09 0.90 0.76 0.72 0.78 0.86
0.93 0.93 0.88 0.77 0.68 0.71 0.84 1.02 1.11 1.09 1.21 1.44 1.66 1.71 1.70 1.63 1.52 1.49 1.65 1.80 1.87 1.87 1.64 1.73 1.79 1.83 1.88 1.61 1.29 1.28 1.35 1.43 1.39 1.22 1.02 0.93 0.90 0.88
0.90 0.90 0.84 0.76 0.67 0.70 0.78 0.90 0.95 1.07 1.34 1.63 1.77 1.73 1.52 1.35 1.34 1.35 1.42 1.58 1.68 1.65 1.57 1.66 1.79 1.86 1.85 1.69 1.45 1.35 1.45 1.57 1.60 1.51 1.31 1.23 1.18 1.08
0.79 0.80 0.80 0.80 0.80 0.88 0.92 0.95 1.03 1.23 1.45 1.57 1.57 1.47 1.35 1.30 1.33 1.38 1.37 1.52 1.57 1.41 1.30 1.36 1.58 1.71 1.83 1.76 1.64 1.63 1.71 1.84 1.81 1.78 1.67 1.45 1.31 1.27
0.77 0.84 0.93 1.01 1.02 1.02 1.06 1.15 1.21 1.29 1.33 1.41 1.39 1.33 1.28 1.33 1.38 1.34 1.38 1.49 1.61 1.51 1.36 1.32 1.43 1.63 1.75 1.70 1.77 1.83 1.86 2.09 2.04 1.91 1.87 1.77 1.56 1.36
0.77 0.90 1.08 1.18 1.20 1.16 1.13 1.16 1.20 1.22 1.24 1.23 1.23 1.24 1.28 1.28 1.29 1.28 1.34 1.39 1.50 1.46 1.45 1.43 1.47 1.54 1.52 1.55 1.66 1.69 1.78 1.94 2.03 1.97 1.97 2.06 1.98 1.71
0.83 1.04 1.17 1.22 1.26 1.16 1.11 1.08 1.08 1.08 1.07 1.08 1.13 1.19 1.22 1.20 1.20 1.22 1.28 1.36 1.44 1.40 1.40 1.44 1.51 1.67 1.67 1.51 1.53 1.62 1.63 1.84 1.95 1.91 1.85 2.02 2.11 1.88
0.83 0.94 1.06 1.16 1.21 1.11 1.06 1.07 1.07 1.04 1.03 1.06 1.11 1.14 1.17 1.16 1.19 1.22 1.25 1.32 1.36 1.37 1.36 1.35 1.40 1.54 1.62 1.59 1.51 1.54 1.60 1.70 1.78 1.77 1.76 1.81 1.98 1.91
0.87 0.91 0.95 1.05 1.12 1.09 1.05 1.08 1.08 1.06 1.06 1.07 1.08 1.13 1.19 1.20 1.16 1.16 1.19 1.21 1.27 1.31 1.36 1.38 1.37 1.40 1.44 1.46 1.58 1.58 1.49 1.43 1.44 1.54 1.60 1.67 1.76 1.74
0.86 0.87 0.87 0.92 0.98 1.05 1.09 1.10 1.07 1.04 1.04 1.05 1.06 1.12 1.17 1.17 1.15 1.11 1.11 1.12 1.18 1.24 1.32 1.34 1.33 1.30 1.34 1.42 1.52 1.54 1.49 1.54 1.47 1.39 1.41 1.51 1.50 1.36
0.86 0.89 0.90 0.89 0.91 0.92 0.97 1.01 1.01 0.98 0.98 1.03 1.09 1.14 1.17 1.18 1.12 1.05 1.08 1.14 1.20 1.22 1.23 1.22 1.20 1.26 1.33 1.43 1.49 1.53 1.52 1.39 1.35 1.36 1.31 1.17 1.05 1.06
0.95 0.92 0.88 0.89 0.87 0.85 0.87 0.92 0.93 0.92 0.94 0.99 1.06 1.13 1.12 1.11 1.08 1.01 0.98 1.00 1.03 1.06 1.12 1.21 1.25 1.25 1.25 1.29 1.35 1.36 1.30 1.23 1.11 1.08 1.16 1.14 0.99 0.94